WetterOnline ( https://www.wetteronline.de )

Wetter aktuell Warburg

Aktuelles Wetter: Warburg (237m)

6-stündlich | Neueste Meldungen
Ortszeit Temperatur Wetter
So, 01.08. 2:00 14.6° C bedeckt
Sa, 31.07. 20:00 18.4° C bedeckt
Sa, 31.07. 14:00 19.4° C bedeckt
Sa, 31.07. 8:00 16.3° C bewölkt
Sa, 31.07. 2:00 16.7° C leicht bewölkt
Fr, 30.07. 20:00 23.4° C leicht bewölkt
Fr, 30.07. 14:00 22.4° C bewölkt
Fr, 30.07. 8:00 13.8° C bewölkt
Ortszeit Temperatur Wetter
So, 01.08. 6:10 13.1° C bedeckt
So, 01.08. 6:00 13.0° C bedeckt
So, 01.08. 5:50 13.0° C bedeckt
So, 01.08. 5:40 13.0° C bedeckt
So, 01.08. 5:30 13.0° C bedeckt
So, 01.08. 5:20 13.0° C bedeckt
So, 01.08. 5:00 13.0° C bewölkt
So, 01.08. 4:30 12.9° C wolkig
So, 01.08. 4:00 13.2° C wolkig
So, 01.08. 3:30 14.0° C wolkig
So, 01.08. 3:00 14.3° C bewölkt
Ortszeit Relative Feuchte Sichtweite
So, 01.08. 2:00 87% 45 km
Sa, 31.07. 20:00 65% 65 km
Sa, 31.07. 14:00 57% 45 km
Sa, 31.07. 8:00 65% 60 km
Sa, 31.07. 2:00 65% >70 km
Fr, 30.07. 20:00 47% 45 km
Fr, 30.07. 14:00 51% 55 km
Fr, 30.07. 8:00 82% 35 km
Ortszeit Relative Feuchte Sichtweite
So, 01.08. 6:10 92% -
So, 01.08. 6:00 94% 30 km
So, 01.08. 5:50 94% -
So, 01.08. 5:40 95% -
So, 01.08. 5:30 94% 23 km
So, 01.08. 5:20 94% -
So, 01.08. 5:00 94% 30 km
So, 01.08. 4:30 93% 35 km
So, 01.08. 4:00 93% 35 km
So, 01.08. 3:30 88% 40 km
So, 01.08. 3:00 88% 50 km
Ortszeit Niederschlagsmenge Niederschlagsart
So, 01.08. 2:00 0.1 l/m2 in 6 Std. Regen
Sa, 31.07. 20:00 0.1 l/m2 in 12 Std. Regen
Sa, 31.07. 14:00 0.0 l/m2 in 6 Std. -
Sa, 31.07. 8:00 0.0 l/m2 in 12 Std. -
Sa, 31.07. 2:00 0.0 l/m2 in 6 Std. -
Fr, 30.07. 20:00 0.0 l/m2 in 12 Std. -
Fr, 30.07. 14:00 0.0 l/m2 in 6 Std. -
Fr, 30.07. 8:00 0.0 l/m2 in 12 Std. -
Ortszeit Niederschlagsmenge Niederschlagsart
So, 01.08. 6:10 keine Meldung -
So, 01.08. 6:00 0.0 l/m2 in 1 Std. -
So, 01.08. 5:50 keine Meldung -
So, 01.08. 5:40 keine Meldung -
So, 01.08. 5:30 0.0 l/m2 in 1 Std. -
So, 01.08. 5:20 keine Meldung -
So, 01.08. 5:00 0.0 l/m2 in 1 Std. -
So, 01.08. 4:30 0.0 l/m2 in 1 Std. -
So, 01.08. 4:00 0.0 l/m2 in 1 Std. -
So, 01.08. 3:30 0.0 l/m2 in 1 Std. -
So, 01.08. 3:00 0.0 l/m2 in 1 Std. -
Ortszeit Stärke Spitze Richtung
km/h Bft. km/h Grad Sektor
So, 01.08. 2:00 6 1 26 - -
Sa, 31.07. 20:00 13 3 48 - -
Sa, 31.07. 14:00 26 4 54 - -
Sa, 31.07. 8:00 17 3 28 - -
Sa, 31.07. 2:00 14 3 43 - -
Fr, 30.07. 20:00 13 3 39 - -
Fr, 30.07. 14:00 13 3 30 - -
Fr, 30.07. 8:00 7 2 11 360° N
Ortszeit Stärke Spitze Richtung
km/h Bft. km/h Grad Sektor
So, 01.08. 6:10 7 2 - - -
So, 01.08. 6:00 4 1 11 - -
So, 01.08. 5:50 4 1 - - -
So, 01.08. 5:40 4 1 - - -
So, 01.08. 5:30 7 2 11 - -
So, 01.08. 5:20 7 2 - - -
So, 01.08. 5:00 4 1 7 - -
So, 01.08. 4:30 4 1 7 - -
So, 01.08. 4:00 4 1 7 - -
So, 01.08. 3:30 4 1 7 - -
So, 01.08. 3:00 2 1 7 - -
Ortszeit Untergrenze Bedeckung Gattung
total tief tief mittel hoch
So, 01.08. 2:00 1350 m 8/8 8/8 - - -
Sa, 31.07. 20:00 1800 m 8/8 8/8 - - -
Sa, 31.07. 14:00 1290 m 8/8 8/8 - - -
Sa, 31.07. 8:00 1230 m 7/8 7/8 - - -
Sa, 31.07. 2:00 2100 m 3/8 3/8 - - -
Fr, 30.07. 20:00 2100 m 3/8 3/8 - - -
Fr, 30.07. 14:00 1440 m 7/8 7/8 - - -
Fr, 30.07. 8:00 3600 m 8/8 5/8 - - -
Ortszeit Bedeckungsgrad in Achtel und Wolkenuntergrenze
So, 01.08. 6:10 8(2700m)
So, 01.08. 6:00 8(2700m)
So, 01.08. 5:50 8(2700m)
So, 01.08. 5:40 8(2700m)
So, 01.08. 5:30 1(870m) 8(2700m)
So, 01.08. 5:20 1(870m) 8(2700m)
So, 01.08. 5:00 5(900m) 7(2700m) 8(8100m)
So, 01.08. 4:30 2(1200m) 8(8400m) 8(9000m)
So, 01.08. 4:00 2(810m) 7(9000m) 7(9000m)
So, 01.08. 3:30 1(1050m) 8(5100m) 8(6300m)
So, 01.08. 3:00 6(1800m) 8(5100m) 8(6000m)
Ortszeit Luftdruck NN (hPa) Tendenz (hPa in 3 Std.)
So, 01.08. 2:00 1010 - 0,3
Sa, 31.07. 20:00 1009 + 0,3
Sa, 31.07. 14:00 1008 + 0,4
Sa, 31.07. 8:00 1007 - 0,2
Sa, 31.07. 2:00 1008 + 1,0
Fr, 30.07. 20:00 1006 - 0,8
Fr, 30.07. 14:00 1008 - 1,5
Fr, 30.07. 8:00 1011 - 0,6
Ortszeit Luftdruck NN (hPa) Tendenz (hPa in 3 Std.)
So, 01.08. 6:10 1010 keine Meldung
So, 01.08. 6:00 1009 - 0,2
So, 01.08. 5:50 1009 keine Meldung
So, 01.08. 5:40 1010 keine Meldung
So, 01.08. 5:30 1009 - 0,4
So, 01.08. 5:20 1009 keine Meldung
So, 01.08. 5:00 1009 - 0,5
So, 01.08. 4:30 1009 - 0,7
So, 01.08. 4:00 1009 - 0,6
So, 01.08. 3:30 1009 - 0,6
So, 01.08. 3:00 1009 - 0,6
Ortszeit Schneehöhe (cm)
So, 01.08. 2:00 -
Sa, 31.07. 20:00 -
Sa, 31.07. 14:00 -
Sa, 31.07. 8:00 -
Sa, 31.07. 2:00 -
Fr, 30.07. 20:00 -
Fr, 30.07. 14:00 -
Fr, 30.07. 8:00 -
Ortszeit Schneehöhe (cm)
So, 01.08. 6:10 -
So, 01.08. 6:00 -
So, 01.08. 5:50 -
So, 01.08. 5:40 -
So, 01.08. 5:30 -
So, 01.08. 5:20 -
So, 01.08. 5:00 -
So, 01.08. 4:30 -
So, 01.08. 4:00 -
So, 01.08. 3:30 -
So, 01.08. 3:00 -
Link zu dieser Seite / Seite empfehlen

Das Wetter in ...